TimePDT,TemperatureF,Dew PointF,Humidity,Sea Level PressureIn,VisibilityMPH,Wind Direction,Wind SpeedMPH,Gust SpeedMPH,PrecipitationIn,Events,Conditions,WindDirDegrees,DateUTC
12:54 AM,55.9,52.0,87,30.09,10.0,NW,4.6,-,N/A,,Overcast,320,2013-05-08 07:54:00
1:54 AM,55.9,52.0,87,30.09,10.0,North,6.9,-,N/A,,Overcast,360,2013-05-08 08:54:00
2:22 AM,55.4,51.8,88,30.06,10.0,NNW,5.8,-,N/A,,Overcast,340,2013-05-08 09:22:00
2:54 AM,55.9,51.1,84,30.09,10.0,NNW,4.6,-,N/A,,Overcast,340,2013-05-08 09:54:00
3:54 AM,55.9,51.1,84,30.10,10.0,WNW,6.9,-,N/A,,Overcast,290,2013-05-08 10:54:00
4:54 AM,55.9,51.1,84,30.10,10.0,West,4.6,-,N/A,,Overcast,270,2013-05-08 11:54:00
5:54 AM,55.9,51.1,84,30.11,10.0,WNW,5.8,-,N/A,,Overcast,290,2013-05-08 12:54:00
6:54 AM,55.9,50.0,80,30.14,10.0,WNW,6.9,-,N/A,,Overcast,300,2013-05-08 13:54:00
7:44 AM,55.4,50.0,82,30.11,10.0,NW,6.9,-,N/A,,Overcast,310,2013-05-08 14:44:00
7:54 AM,57.0,50.0,77,30.14,10.0,WNW,6.9,-,N/A,,Overcast,290,2013-05-08 14:54:00
8:54 AM,57.0,50.0,77,30.15,10.0,NW,8.1,-,N/A,,Overcast,310,2013-05-08 15:54:00
9:54 AM,57.9,50.0,75,30.16,10.0,NW,8.1,-,N/A,,Overcast,320,2013-05-08 16:54:00
10:54 AM,59.0,50.0,72,30.17,10.0,WNW,10.4,-,N/A,,Overcast,290,2013-05-08 17:54:00
11:54 AM,61.0,50.0,67,30.17,10.0,WNW,10.4,-,N/A,,Overcast,300,2013-05-08 18:54:00
12:38 PM,60.8,50.0,68,30.13,10.0,West,11.5,-,N/A,,Mostly Cloudy,280,2013-05-08 19:38:00
12:54 PM,62.1,50.0,65,30.17,10.0,West,12.7,-,N/A,,Mostly Cloudy,280,2013-05-08 19:54:00
1:09 PM,62.6,51.8,68,30.14,10.0,WNW,10.4,-,N/A,,Mostly Cloudy,300,2013-05-08 20:09:00
1:54 PM,62.1,50.0,65,30.17,10.0,WNW,12.7,-,N/A,,Mostly Cloudy,290,2013-05-08 20:54:00
2:41 PM,60.8,51.8,72,30.13,10.0,WNW,13.8,19.6,N/A,,Scattered Clouds,290,2013-05-08 21:41:00
2:54 PM,62.1,51.1,67,30.16,9.0,West,15.0,-,N/A,,Scattered Clouds,280,2013-05-08 21:54:00
3:54 PM,62.1,50.0,65,30.15,10.0,West,15.0,-,N/A,,Partly Cloudy,280,2013-05-08 22:54:00
4:23 PM,60.8,50.0,68,30.11,10.0,NW,12.7,-,N/A,,Mostly Cloudy,310,2013-05-08 23:23:00
4:54 PM,59.0,50.0,72,30.14,10.0,NW,12.7,19.6,N/A,,Overcast,310,2013-05-08 23:54:00
5:39 PM,59.0,50.0,72,30.11,10.0,WNW,11.5,-,N/A,,Overcast,290,2013-05-09 00:39:00
5:54 PM,57.9,50.0,75,30.14,10.0,WNW,12.7,-,N/A,,Overcast,290,2013-05-09 00:54:00
6:54 PM,57.0,48.9,74,30.14,10.0,WNW,11.5,-,N/A,,Overcast,290,2013-05-09 01:54:00
7:54 PM,55.9,48.9,77,30.15,10.0,WNW,9.2,-,N/A,,Overcast,300,2013-05-09 02:54:00
8:54 PM,55.0,48.9,80,30.17,10.0,WNW,11.5,-,N/A,,Overcast,300,2013-05-09 03:54:00
9:54 PM,55.0,48.9,80,30.19,10.0,WNW,9.2,-,N/A,,Overcast,290,2013-05-09 04:54:00
10:54 PM,55.0,48.9,80,30.19,10.0,West,6.9,-,N/A,,Overcast,280,2013-05-09 05:54:00
11:54 PM,55.0,48.9,80,30.19,10.0,West,4.6,-,N/A,,Overcast,270,2013-05-09 06:54:00